Temperature
10 10 10 9 9 9 10 10 10 10 10 10 10 10 10 10 10 10 10 10 10 10 10 10 10 10 10 10 10 10 10 10 10 10 9 9 9 10 10 9 9 9 9
10 9 9 9 9 9 9 9 9 9 9 10 10 10 10 10 10 10 10 10 10 10 10 10 10 10 10 10 10 10 9 10 9 9 9 8 9 9 9 9 9 9 9
9 9 9 9 8 8 8 8 9 9 9 9 9 9 9 10 9 9 9 9 9 9 9 9 10 10 10 9 9 9 9 9 9 9 8 8 8 8 9 9 9 9 9
9 8 8 8 8 8 8 8 8 8 8 8 8 9 9 9 9 9 9 9 9 9 9 9 9 9 9 9 9 9 8 8 8 8 8 8 8 8 8 8 8 8 8
8 8 8 8 7 7 8 8 8 8 8 8 8 8 8 8 8 8 8 8 8 8 8 8 8 8 8 8 8 8 8 8 8 8 8 8 8 8 8 7 8 8 8
8 8 7 7 7 7 7 7 7 7 7 7 7 7 7 7 7 7 7 8 8 8 8 8 7 7 7 7 8 7 7 7 7 7 7 7 7 7 7 7 7 7 8
7 7 7 7 7 7 7 7 6 7 7 7 7 6 6 6 6 6 7 7 7 7 7 7 7 7 7 7 7 7 7 7 7 7 7 7 7 7 7 7 7 7 7
7 6 6 6 6 6 6 6 6 6 6 6 6 6 6 6 6 6 6 6 6 6 6 6 6 6 6 6 6 6 6 6 6 6 7 7 7 7 6 6 6 6 6
6 6 6 6 6 6 6 5 5 5 5 5 5 5 5 5 5 5 5 5 5 5 5 5 5 6 6 6 6 6 6 6 6 6 6 6 6 6 6 6 6 6 5
6 5 5 5 5 5 5 5 5 5 5 5 5 4 5 5 5 5 5 5 5 5 5 5 5 5 5 5 5 5 5 5 5 5 6 6 6 6 5 5 5 5 5
5 5 4 4 5 4 4 4 4 4 4 4 4 4 4 4 4 4 4 4 4 4 4 4 4 5 5 5 5 5 5 5 5 5 5 5 5 5 5 5 5 5 5
5 4 4 4 4 4 4 4 3 3 3 4 4 4 4 4 4 4 4 4 4 4 4 4 4 4 4 4 4 4 5 5 5 5 5 5 5 5 5 5 5 5 5
4 4 3 3 3 3 3 3 3 3 3 3 3 3 3 3 3 3 3 3 3 3 3 3 3 3 3 3 4 4 4 4 4 4 4 4 4 4 4 4 4 4 4
4 3 3 3 2 2 3 3 3 3 3 2 2 2 2 2 2 2 2 2 2 2 2 2 3 3 3 3 3 3 3 3 4 4 4 4 4 4 4 4 4 4 4
3 3 2 2 2 2 2 2 2 2 2 2 2 2 2 2 2 2 2 2 2 2 2 2 2 2 2 2 3 3 3 3 3 3 3 3 3 3 3 3 3 3 3
2 2 2 2 2 2 2 2 2 2 1 1 1 1 1 1 1 1 1 1 1 1 1 2 2 2 2 2 2 2 3 3 3 3 3 3 3 3 3 3 3 3 3
2 2 1 1 1 1 1 1 1 1 1 1 1 1 1 0 0 0 0 1 1 1 1 1 1 1 1 2 2 2 2 2 2 2 2 2 2 2 3 2 2 3 2
2 2 1 1 1 1 1 1 0 0 0 0 0 0 0 0 0 0 0 0 0 0 1 1 1 1 1 1 1 2 2 2 2 2 2 2 2 2 2 2 2 2 2
2 1 1 1 1 0 0 -0 -0 -0 -0 -0 -0 -0 -0 -0 -0 -0 -0 0 -0 0 0 0 0 1 1 1 1 1 1 1 2 2 2 2 2 2 2 2 1 1 1
1 1 1 1 0 0 -0 -0 -1 -1 -1 -1 -1 -0 -0 -0 -0 -0 -0 -0 -0 -0 -0 -0 -0 -0 0 0 0 1 1 1 1 1 1 1 1 1 1 1 1 1 1
1 1 0 0 -0 -0 -1 -1 -1 -1 -1 -1 -1 -1 -1 -1 -1 -1 -1 -1 -1 -1 -1 -1 -1 -1 -1 -0 -0 -0 0 0 0 0 0 1 1 1 1 0 0 0 0
0 0 -0 -0 -0 -1 -1 -1 -1 -1 -1 -1 -1 -1 -1 -1 -1 -1 -1 -1 -1 -1 -1 -1 -1 -1 -1 -1 -1 -1 -0 -0 -1 -0 -0 -0 0 0 -0 -0 -0 -0 -1
-0 -1 -1 -1 -1 -1 -1 -1 -2 -2 -2 -2 -1 -1 -1 -1 -1 -1 -1 -2 -2 -2 -2 -2 -2 -2 -1 -1 -1 -1 -1 -1 -1 -1 -1 -1 -1 -1 -1 -1 -1 -1 -1
-1 -1 -1 -1 -1 -2 -2 -2 -2 -2 -2 -2 -2 -2 -1 -1 -2 -2 -2 -2 -2 -2 -2 -2 -2 -2 -2 -2 -2 -2 -2 -1 -1 -2 -2 -2 -2 -1 -1 -2 -2 -2 -2
-1 -2 -2 -2 -2 -2 -2 -2 -2 -2 -2 -2 -2 -2 -2 -2 -2 -2 -2 -2 -2 -2 -2 -2 -2 -2 -2 -2 -2 -2 -2 -2 -2 -2 -2 -2 -2 -2 -2 -2 -2 -3 -3
-2 -2 -2 -2 -2 -2 -2 -2 -3 -3 -3 -3 -2 -2 -2 -3 -3 -3 -3 -3 -3 -3 -3 -3 -3 -3 -3 -3 -3 -3 -2 -2 -2 -3 -3 -3 -3 -3 -3 -3 -3 -3 -3
Wind_Speed
3 4 4 3 3 3 3 2 3 2 2 1 1 0 0 0 0 1 1 1 1 1 1 0 1 1 2 2 2 2 2 1 1 0 1 2 2 3 3 2 3 4 6
3 4 4 4 3 3 3 2 2 2 2 1 1 1 1 1 1 0 0 0 0 1 1 1 1 1 1 2 2 2 2 2 1 2 1 2 2 3 3 3 3 4 4
5 5 4 3 3 3 2 1 1 2 2 1 0 0 0 0 0 0 0 0 0 0 1 1 1 1 2 2 2 3 3 3 2 2 2 2 3 2 2 4 4 4 3
4 4 4 4 3 3 2 2 1 1 1 1 1 1 1 1 1 1 1 1 1 1 1 1 1 2 2 2 3 2 2 3 3 3 2 2 1 1 2 2 3 4 4
4 5 5 4 3 3 2 1 1 1 1 1 1 2 1 1 1 1 1 1 1 1 2 1 1 2 2 2 3 3 3 3 3 3 2 3 2 2 2 3 2 2 3
3 4 4 4 3 2 2 1 1 1 1 0 1 1 1 1 1 1 1 1 1 1 2 2 2 2 2 3 3 3 4 4 4 4 3 3 3 3 3 4 3 3 3
3 3 3 3 2 2 2 1 1 0 0 0 1 1 1 2 2 2 2 2 2 2 2 3 2 2 3 3 3 4 4 4 5 5 4 4 5 3 3 4 3 3 2
2 2 2 3 2 1 1 1 1 1 0 1 2 2 2 2 2 2 2 3 2 2 3 3 3 3 3 3 3 3 4 4 5 6 5 4 5 4 4 4 3 3 3
2 1 1 1 1 1 2 2 2 2 1 1 2 3 2 2 2 2 2 2 2 3 3 3 3 3 4 4 3 3 4 5 5 6 6 5 4 4 4 4 4 4 4
1 1 0 0 0 1 2 2 2 3 2 2 2 3 2 3 3 2 2 3 3 3 3 4 4 4 4 4 4 4 4 5 5 5 6 6 5 4 4 4 5 5 5
1 0 0 1 0 0 0 1 2 2 2 2 3 3 2 3 3 2 3 3 3 3 4 4 4 4 5 5 5 5 5 6 6 5 6 7 5 5 4 4 4 5 4
0 1 1 1 0 1 1 1 1 1 2 2 3 3 2 3 3 3 3 3 4 4 4 4 5 5 5 5 6 6 6 6 7 6 5 6 5 6 5 5 5 5 5
1 1 2 2 2 1 1 1 1 1 1 2 3 3 3 3 3 3 3 3 4 4 4 4 5 5 6 6 6 6 6 6 6 6 7 7 6 6 5 5 6 5 4
1 2 2 3 3 2 2 1 1 1 1 2 3 4 4 3 3 3 3 4 4 4 4 4 5 6 5 5 5 6 6 6 6 6 6 6 7 7 6 6 6 5 4
1 2 3 3 3 2 2 2 2 2 2 3 4 4 3 3 3 3 3 4 4 5 4 4 5 5 5 5 5 5 5 5 6 6 5 6 6 7 6 5 5 5 4
2 2 3 3 3 3 2 3 3 3 3 3 4 3 3 4 3 3 4 4 4 4 4 4 5 5 5 7 7 5 4 5 5 5 4 4 5 6 7 7 6 5 6
3 2 2 3 3 3 2 3 3 3 3 4 4 3 3 4 4 4 4 4 4 4 4 4 5 6 6 7 8 6 4 4 4 4 3 3 4 5 4 5 5 5 6
3 3 2 2 3 2 3 3 3 3 4 4 4 4 4 4 4 4 4 4 4 4 4 4 5 5 6 8 8 6 4 3 4 4 4 4 4 5 4 3 3 3 4
2 3 2 2 2 2 2 3 3 3 4 4 4 4 4 4 4 4 4 4 3 3 4 4 4 4 5 7 6 5 2 2 3 3 3 4 4 5 5 4 3 2 2
2 2 2 2 2 2 2 2 4 4 4 4 5 5 4 4 5 5 4 3 3 3 4 4 4 4 5 6 6 4 2 2 2 2 3 4 3 4 4 4 3 3 2
2 2 2 2 2 3 2 3 3 4 4 5 5 5 4 4 4 4 3 3 2 3 3 4 4 4 4 5 5 4 2 2 2 2 2 2 3 4 4 3 3 4 2
3 2 2 2 2 2 2 3 4 5 5 5 5 5 4 4 3 3 3 3 2 2 3 3 3 3 3 4 4 3 2 2 2 1 1 1 1 1 2 2 3 4 3
2 2 2 3 3 3 2 4 5 5 5 5 5 4 4 3 3 2 3 3 2 2 2 2 3 3 2 3 3 2 2 3 1 1 1 1 1 1 1 3 3 3 2
2 2 2 2 4 4 3 4 5 5 4 4 4 4 3 3 3 2 2 2 2 2 2 3 3 3 2 2 1 1 1 1 1 1 0 1 2 2 2 2 2 1 2
2 1 2 3 4 4 4 4 4 4 4 4 4 4 3 3 2 2 2 2 2 3 3 3 3 3 3 3 2 1 0 0 0 1 1 1 2 2 2 2 2 2 2
2 2 3 4 4 4 4 4 4 4 4 4 4 3 3 3 2 2 3 4 3 4 4 3 3 3 3 3 2 1 1 1 2 2 1 1 1 1 1 1 1 1 1
Wind_Direction
160 147 136 126 123 119 114 112 100 94 84 74 111 126 184 160 133 44 84 95 112 125 101 123 135 140 195 208 202 218 228 215 175 137 293 278 238 215 217 203 181 181 192
158 145 139 130 120 114 119 127 113 106 89 85 155 190 233 207 188 30 28 241 93 150 166 138 196 187 189 220 216 209 221 234 203 174 186 259 274 251 228 211 207 202 196
171 159 147 131 116 106 112 123 109 102 96 60 142 142 9 321 151 246 196 328 340 261 187 172 182 207 203 215 229 219 214 229 234 209 189 201 228 264 239 225 217 206 204
167 160 149 127 119 110 93 66 67 95 112 106 168 169 208 234 244 225 225 255 333 308 254 200 192 207 221 224 232 232 231 223 235 243 242 236 191 200 248 256 231 216 214
170 157 142 134 123 114 105 86 65 55 88 124 196 192 222 239 249 275 250 239 246 292 290 249 220 212 222 226 234 235 230 231 234 230 240 256 265 244 212 245 251 247 232
145 142 132 124 121 116 119 131 121 100 76 62 230 218 232 229 215 273 262 250 248 259 289 280 248 231 225 223 231 234 230 236 238 236 229 224 228 230 220 227 236 247 247
133 139 141 142 146 139 147 170 188 193 100 344 275 247 256 234 213 223 255 266 257 267 258 288 266 249 241 237 230 232 232 228 229 231 238 236 236 236 226 228 242 255 260
131 149 158 164 164 162 182 203 234 259 297 311 289 254 245 244 227 231 237 252 255 254 253 273 272 263 258 256 240 233 237 235 232 237 234 241 240 235 231 230 223 254 267
135 128 120 143 168 211 230 215 220 247 254 275 281 260 244 268 260 244 240 249 256 273 263 266 260 260 253 252 246 237 238 240 237 236 234 238 241 234 233 233 224 220 241
146 113 51 345 261 247 254 222 220 240 258 278 279 270 254 263 260 254 246 255 258 261 262 258 255 258 257 254 247 245 239 239 237 235 232 237 241 234 226 226 236 233 226
114 161 299 305 300 260 263 248 220 241 258 277 275 263 262 273 267 256 255 256 263 261 260 262 259 256 256 253 251 255 250 244 246 244 237 238 232 230 228 226 233 238 226
322 3 354 341 341 253 239 260 239 253 279 283 278 273 279 275 268 270 274 260 258 256 258 261 265 264 260 256 248 249 250 246 243 241 238 238 233 228 227 225 228 236 229
290 5 7 0 344 327 310 290 282 282 306 304 284 284 276 263 263 271 278 271 264 260 257 259 261 265 263 258 255 251 250 248 244 237 233 232 225 227 229 227 227 230 235
358 358 351 342 330 323 329 320 299 291 305 298 288 278 273 270 274 279 277 275 269 266 261 259 262 264 265 265 264 262 252 250 252 248 241 232 224 223 224 230 231 229 227
345 335 329 327 328 325 338 348 335 314 299 283 280 284 294 294 282 278 276 277 275 273 266 264 264 265 262 261 267 267 259 251 253 252 245 238 235 234 230 232 228 222 224
281 296 314 326 326 327 341 340 327 323 305 283 284 298 307 299 283 275 270 272 273 274 273 268 266 265 266 272 277 280 271 263 255 253 249 242 235 240 241 240 235 221 219
284 287 300 309 313 325 335 322 320 324 314 301 301 303 298 294 291 287 274 270 269 270 272 272 273 270 269 276 283 286 277 268 262 250 240 248 245 239 231 238 247 240 234
299 296 297 306 322 333 335 331 331 323 310 308 307 303 293 288 289 284 276 274 272 268 266 271 272 275 277 282 282 290 278 271 265 252 234 229 233 227 218 217 226 234 235
300 303 306 314 331 330 335 337 324 316 313 311 305 300 293 289 285 281 279 276 276 278 276 273 270 271 277 281 283 290 267 273 276 267 254 242 230 219 200 191 199 226 247
322 315 330 347 341 332 345 333 315 316 311 309 306 301 300 295 286 283 279 283 281 276 282 281 276 268 267 279 283 288 254 253 269 274 260 248 234 216 195 187 187 204 207
328 343 350 343 329 329 334 317 309 306 310 312 311 302 297 291 285 288 291 293 287 286 288 290 284 273 270 274 286 295 260 241 243 259 270 253 243 232 203 193 192 192 172
327 340 341 329 331 332 331 316 310 317 324 321 315 306 299 295 300 296 298 292 271 270 280 281 285 282 279 281 282 301 307 298 238 247 268 274 258 216 178 172 160 148 137
316 329 327 322 324 328 325 310 316 326 326 322 318 318 313 308 303 291 280 280 271 264 271 273 278 286 282 275 285 306 319 326 307 272 309 348 14 55 145 143 131 127 133
314 324 327 316 314 319 317 312 319 324 323 318 317 318 323 326 325 319 299 281 271 271 272 267 266 272 276 269 263 289 303 312 325 322 8 58 52 47 71 104 115 116 132
313 311 301 299 303 315 319 323 326 326 319 314 314 316 318 315 317 320 314 299 283 276 266 254 250 251 261 272 292 310 297 317 117 67 55 60 72 64 61 78 87 92 107
302 311 304 302 304 313 317 322 326 322 316 313 314 313 316 316 319 326 334 339 330 326 320 315 299 283 286 292 299 318 24 84 106 94 108 130 131 136 150 135 106 105 121
Height
1486 1487 1488 1490 1491 1492 1493 1494 1495 1497 1498 1499 1501 1502 1504 1505 1507 1508 1509 1510 1511 1512 1513 1513 1514 1515 1516 1516 1517 1518 1519 1519 1520 1521 1520 1521 1522 1522 1522 1523 1523 1524 1525
1483 1484 1486 1487 1488 1489 1491 1492 1493 1494 1495 1497 1498 1500 1501 1502 1504 1505 1506 1507 1508 1509 1510 1510 1511 1512 1512 1513 1514 1514 1515 1516 1517 1517 1517 1518 1518 1517 1518 1519 1520 1520 1521
1479 1481 1483 1484 1486 1487 1488 1489 1490 1491 1493 1494 1496 1497 1498 1499 1500 1501 1503 1504 1505 1506 1506 1507 1507 1508 1509 1509 1510 1511 1511 1512 1513 1514 1515 1515 1513 1513 1514 1515 1516 1517 1517
1477 1479 1480 1482 1483 1484 1486 1487 1488 1489 1490 1492 1493 1493 1494 1495 1496 1497 1499 1500 1501 1502 1502 1503 1504 1504 1505 1505 1506 1507 1508 1508 1508 1509 1511 1512 1511 1511 1510 1511 1512 1513 1513
1475 1476 1477 1479 1481 1482 1484 1485 1486 1487 1488 1489 1489 1490 1491 1492 1492 1493 1495 1496 1497 1498 1498 1499 1500 1500 1501 1501 1502 1503 1503 1504 1505 1505 1506 1507 1507 1507 1507 1506 1508 1508 1509
1473 1474 1476 1477 1479 1480 1482 1483 1483 1484 1485 1486 1486 1487 1488 1488 1489 1489 1490 1491 1492 1493 1494 1495 1495 1496 1496 1497 1497 1498 1499 1499 1500 1501 1501 1502 1502 1502 1503 1503 1502 1503 1504
1472 1472 1474 1474 1476 1478 1479 1480 1480 1481 1481 1482 1482 1483 1484 1485 1485 1485 1486 1487 1487 1488 1489 1490 1491 1491 1492 1492 1493 1493 1494 1495 1495 1496 1496 1497 1497 1498 1499 1499 1498 1498 1498
1470 1471 1472 1473 1474 1475 1476 1477 1477 1477 1477 1478 1479 1479 1480 1481 1481 1481 1482 1482 1483 1483 1484 1485 1486 1486 1487 1488 1488 1489 1489 1490 1490 1491 1491 1492 1492 1493 1494 1495 1495 1494 1493
1469 1469 1470 1471 1471 1472 1473 1474 1473 1474 1474 1475 1475 1475 1476 1476 1477 1477 1478 1478 1479 1479 1480 1480 1481 1481 1482 1483 1483 1483 1483 1484 1485 1485 1485 1486 1486 1487 1488 1490 1491 1491 1489
1467 1468 1468 1468 1469 1469 1470 1470 1470 1470 1470 1470 1471 1471 1471 1472 1472 1472 1473 1473 1474 1474 1475 1475 1476 1476 1477 1477 1478 1477 1478 1478 1478 1479 1479 1480 1480 1481 1482 1484 1485 1485 1485
1466 1466 1467 1466 1466 1466 1466 1466 1467 1467 1466 1466 1467 1467 1467 1467 1467 1467 1468 1468 1469 1469 1469 1470 1470 1470 1471 1472 1472 1472 1472 1472 1472 1473 1473 1474 1475 1475 1476 1477 1479 1480 1480
1465 1465 1465 1464 1464 1464 1464 1463 1463 1463 1463 1463 1463 1462 1462 1462 1462 1462 1463 1463 1463 1463 1464 1464 1465 1465 1465 1466 1466 1466 1466 1466 1466 1467 1468 1468 1469 1470 1470 1471 1472 1473 1474
1464 1464 1463 1462 1461 1461 1460 1460 1459 1459 1459 1459 1458 1458 1458 1457 1457 1457 1457 1458 1458 1458 1459 1459 1459 1459 1460 1460 1460 1460 1461 1461 1461 1461 1461 1462 1463 1463 1464 1465 1466 1467 1468
1462 1461 1460 1459 1458 1458 1457 1456 1456 1456 1455 1455 1454 1454 1453 1453 1452 1453 1453 1453 1454 1454 1453 1454 1454 1454 1454 1455 1455 1455 1455 1455 1455 1455 1456 1456 1456 1457 1458 1459 1460 1461 1461
1460 1459 1458 1457 1456 1455 1454 1453 1453 1452 1452 1451 1450 1449 1448 1448 1448 1448 1448 1449 1449 1449 1449 1449 1449 1449 1449 1449 1449 1449 1449 1449 1449 1449 1449 1450 1450 1451 1452 1453 1454 1455 1455
1458 1457 1456 1455 1453 1452 1451 1450 1449 1449 1448 1447 1446 1445 1444 1444 1444 1444 1444 1444 1444 1444 1444 1444 1444 1444 1444 1444 1444 1444 1444 1443 1443 1443 1443 1443 1444 1445 1446 1447 1448 1449 1449
1456 1455 1453 1452 1451 1450 1448 1447 1446 1445 1444 1443 1442 1441 1441 1441 1440 1440 1440 1440 1439 1439 1439 1439 1439 1439 1439 1439 1439 1439 1438 1438 1437 1438 1438 1438 1439 1439 1440 1441 1442 1443 1444
1454 1452 1451 1450 1449 1447 1446 1445 1443 1442 1441 1440 1439 1439 1438 1437 1437 1436 1436 1435 1435 1435 1434 1434 1434 1434 1434 1434 1434 1434 1434 1433 1433 1433 1433 1434 1434 1434 1435 1435 1436 1437 1438
1451 1450 1449 1448 1446 1445 1444 1442 1441 1439 1438 1437 1437 1436 1435 1434 1434 1433 1432 1431 1431 1430 1430 1430 1430 1430 1430 1430 1429 1429 1429 1428 1429 1429 1429 1429 1429 1430 1430 1431 1431 1432 1433
1449 1448 1446 1445 1444 1443 1442 1440 1438 1437 1435 1435 1434 1433 1432 1431 1430 1429 1428 1428 1427 1426 1426 1426 1426 1426 1425 1425 1425 1425 1424 1424 1424 1424 1424 1425 1425 1426 1426 1426 1427 1427 1428
1447 1445 1444 1443 1442 1441 1439 1438 1436 1435 1433 1432 1431 1430 1428 1428 1427 1426 1425 1424 1423 1422 1422 1422 1422 1422 1421 1421 1421 1421 1420 1420 1420 1419 1420 1420 1421 1422 1422 1423 1423 1424 1426
1444 1443 1441 1440 1440 1439 1437 1435 1434 1432 1431 1429 1428 1427 1425 1424 1423 1422 1421 1420 1419 1418 1418 1418 1418 1418 1418 1418 1417 1417 1417 1417 1416 1416 1416 1417 1418 1418 1419 1419 1420 1421 1422
1442 1441 1440 1438 1437 1436 1435 1433 1431 1430 1428 1427 1425 1424 1423 1421 1420 1419 1418 1417 1416 1415 1415 1415 1414 1414 1414 1414 1413 1413 1413 1413 1413 1413 1414 1415 1415 1416 1416 1417 1418 1418 1419
1440 1439 1438 1436 1435 1434 1433 1431 1429 1428 1426 1424 1423 1421 1420 1419 1418 1416 1416 1415 1413 1413 1412 1412 1411 1411 1410 1410 1409 1409 1409 1410 1410 1410 1411 1412 1413 1413 1414 1414 1415 1416 1416
1438 1437 1436 1434 1433 1431 1430 1429 1427 1425 1423 1422 1420 1419 1418 1416 1415 1414 1413 1412 1412 1411 1410 1409 1409 1408 1407 1407 1407 1407 1406 1407 1407 1407 1408 1409 1410 1410 1411 1411 1412 1413 1413
1436 1434 1433 1432 1431 1429 1427 1426 1425 1423 1421 1419 1418 1417 1415 1414 1413 1411 1410 1410 1409 1409 1408 1407 1407 1406 1406 1405 1405 1405 1405 1405 1406 1406 1406 1406 1407 1407 1408 1409 1409 1410 1411